Location: South Tamworth Observatory
(43.8246°N, 71.3026°W)
Time: 14:58:05
(UTC-04:00)

Amateur Radio Satellites - All Passes

Search period start: 25 October 2014 14:28
Search period end: 26 October 2014 14:28
Location: South Tamworth Observatory, 43.8246°N, 71.3026°W

Satellite Date Start Highest point End Downlink Frequencies (MHz)
Time Altitude Azimuth
JAS-1B 25 Oct 14:30:43 14:36:05 35° 263° (W) 14:41:15 435.800 - 435.900 CW/SSB
AO-27 25 Oct 14:31:23 14:36:29 56° 259° (W) 14:41:39 436.795 MHz FM
SO-50 25 Oct 14:37:39 14:41:05 21° 322° (NW) 14:44:37 436.795 FM
PCSat 25 Oct 14:38:16 14:40:55 14° 257° (WSW) 14:43:33 145.825 MHz
AO-Echo 25 Oct 14:48:40 14:52:58 31° 265° (W) 14:57:26 ?
KITSAT 1 25 Oct 14:56:13 15:02:29 24° 330° (NNW) 15:08:47 435.175 FM
Uosat F 25 Oct 14:56:49 15:00:00 17° 60° (ENE) 15:03:12 435.120 FM
Oscar 16 25 Oct 15:01:18 15:03:44 13° 271° (W) 15:06:10 437.025 USB, Beacon 2401.1428
Uribyol 2 25 Oct 15:20:26 15:24:14 20° 268° (W) 15:28:05 436.500 FM
JAS-2 25 Oct 15:26:48 15:29:31 13° 49° (NE) 15:32:20 435.800 - 435.900 CW/SSB, 435.910 FM
ITAMSAT 1 25 Oct 15:26:52 15:30:30 19° 268° (W) 15:34:09 435.822 SSB
ISS 25 Oct 15:37:43 15:40:20 21° 357° (N) 15:42:58 145.800 FM
Saudisat 1A 25 Oct 15:39:04 15:43:22 47° 50° (NE) 15:47:38 436.775 MHz
Gurwin Techsat 1B 25 Oct 15:50:18 15:54:23 22° 267° (W) 15:58:29 435.225 FM
UOSAT-12 25 Oct 15:56:41 16:00:46 29° 316° (NW) 16:04:55 437.025 FM, 437.400 FM
TMSAT-1 25 Oct 16:00:53 16:05:06 24° 267° (W) 16:09:21 436.925 FM
AO-7 25 Oct 16:17:20 16:25:36 75° 254° (WSW) 16:33:55 29.400 - 29.500 MHz
AO-40 25 Oct 16:17:58 22:47:58 38° 185° (S) 04:21:26 Beacon 2401.320
Uosat F 25 Oct 16:33:15 16:38:14 68° 258° (WSW) 16:43:17 435.120 FM
KITSAT 1 25 Oct 16:57:25 17:01:28 14° 360° (N) 17:05:31 435.175 FM
JAS-2 25 Oct 17:07:07 17:13:03 65° 71° (ENE) 17:19:50 435.800 - 435.900 CW/SSB, 435.910 FM
ISS 25 Oct 17:14:46 17:17:45 29° 17° (NNE) 17:20:44 145.800 FM
Hamsat 25 Oct 17:15:39 17:19:38 43° 72° (ENE) 17:23:36 145.90 MHz
Saudisat 1A 25 Oct 17:19:18 17:22:38 21° 248° (WSW) 17:25:57 436.775 MHz
SO-67 25 Oct 17:58:57 18:00:49 14° 66° (ENE) 18:02:40 435.3500 MHz FM
AO-7 25 Oct 18:15:32 18:19:44 15° 273° (W) 18:23:57 29.400 - 29.500 MHz
OPAL 25 Oct 18:16:11 18:21:11 84° 106° (ESE) 18:26:08 ?
STRAND 1 25 Oct 18:24:34 18:27:25 15° 90° (E) 18:30:15 ?
ISS 25 Oct 18:51:20 18:54:39 65° 215° (SW) 18:57:58 145.800 FM
Hamsat 25 Oct 18:53:00 18:55:47 17° 268° (W) 18:58:34 145.90 MHz
KITSAT 1 25 Oct 18:54:14 19:00:28 23° 30° (NNE) 19:06:41 435.175 FM
JAS-2 25 Oct 18:54:16 18:58:49 22° 272° (W) 19:03:48 435.800 - 435.900 CW/SSB, 435.910 FM
SO-67 25 Oct 19:30:17 19:33:28 36° 262° (W) 19:36:42 435.3500 MHz FM
SO-50 25 Oct 19:46:13 19:49:27 18° 36° (NE) 19:52:43 436.795 FM
OPAL 25 Oct 19:56:52 19:59:23 14° 304° (NW) 20:01:53 ?
HO-68 25 Oct 19:57:44 20:04:24 44° 64° (ENE) 20:11:06 435.675 MHz FM
STRAND 1 25 Oct 20:01:59 20:07:08 72° 287° (WNW) 20:12:15 ?
UKube-1 25 Oct 20:29:54 20:33:04 20° 64° (ENE) 20:36:15 145.840 MHz, 145.915 MHz
KITSAT 1 25 Oct 20:49:20 20:57:25 71° 54° (NE) 21:05:28 435.175 FM
RS-15 25 Oct 21:05:25 21:14:51 35° 106° (ESE) 21:24:11 29.354 - 29.394 USB, Beacon 29.352 USB
UOSAT-12 25 Oct 21:05:41 21:07:44 13° 30° (NNE) 21:09:47 437.025 FM, 437.400 FM
Oscar 11 25 Oct 21:09:29 21:13:35 43° 71° (ENE) 21:17:40 145.825 FM, Beacon 2401.500 USB
FUNcube-1 25 Oct 21:10:38 21:14:03 21° 65° (ENE) 21:17:26 145.950 - 145.970 MHz USB
SO-50 25 Oct 21:25:51 21:30:43 87° 56° (NE) 21:35:36 436.795 FM
STRAND 1 25 Oct 21:44:18 21:45:24 11° 305° (NW) 21:46:30 ?
HO-68 25 Oct 21:45:32 21:52:08 39° 262° (W) 21:58:48 435.675 MHz FM
ZACube-1 25 Oct 22:01:01 22:05:34 67° 74° (ENE) 22:10:04 437.345 MHz
UKube-1 25 Oct 22:04:50 22:08:58 42° 261° (W) 22:13:08 145.840 MHz, 145.915 MHz
MaSat-1 25 Oct 22:40:56 22:43:36 17° 107° (ESE) 22:46:07 437.345 MHz
UOSAT-12 25 Oct 22:44:18 22:48:58 54° 51° (NE) 22:53:32 437.025 FM, 437.400 FM
KITSAT 1 25 Oct 22:45:37 22:52:08 28° 254° (WSW) 22:58:39 435.175 FM
FUNcube-1 25 Oct 22:45:48 22:50:10 43° 262° (W) 22:54:28 145.950 - 145.970 MHz USB
Oscar 11 25 Oct 22:46:57 22:49:57 18° 268° (W) 22:52:58 145.825 FM, Beacon 2401.500 USB
SO-50 25 Oct 23:08:30 23:10:36 13° 252° (WSW) 23:12:41 436.795 FM
RS-15 25 Oct 23:15:24 23:26:21 71° 309° (NW) 23:37:20 29.354 - 29.394 USB, Beacon 29.352 USB
ZACube-1 25 Oct 23:40:15 23:42:23 13° 271° (W) 23:44:29 437.345 MHz
MaSat-1 26 Oct 00:15:08 00:18:59 42° 301° (WNW) 00:22:28 437.345 MHz
UOSAT-12 26 Oct 00:25:18 00:28:43 20° 249° (WSW) 00:32:06 437.025 FM, 437.400 FM
Oscar 16 26 Oct 01:29:37 01:33:47 25° 94° (E) 01:37:56 437.025 USB, Beacon 2401.1428
RS-15 26 Oct 01:31:52 01:41:04 30° 339° (NNW) 01:50:24 29.354 - 29.394 USB, Beacon 29.352 USB
Uribyol 2 26 Oct 01:51:56 01:55:18 17° 91° (E) 01:58:38 436.500 FM
ITAMSAT 1 26 Oct 01:58:06 02:01:41 18° 91° (E) 02:05:15 435.822 SSB
Oscar 10/S400 26 Oct 02:04:24 02:41:33 13° 248° (WSW) 03:38:39 145.825 - 145.975 CW/USB, Beacon 145.810 USB
JAS-1B 26 Oct 02:10:11 02:16:46 54° 101° (E) 02:24:35 435.800 - 435.900 CW/SSB
Oscar 19 26 Oct 02:22:13 02:27:21 74° 103° (ESE) 02:32:27 437.125 CW, 437.150 USB
Gurwin Techsat 1B 26 Oct 02:24:53 02:28:27 18° 91° (E) 02:31:59 435.225 FM
TMSAT-1 26 Oct 02:35:31 02:38:50 17° 90° (E) 02:42:08 436.925 FM
AO-27 26 Oct 02:43:01 02:48:05 48° 99° (E) 02:53:06 436.795 MHz FM
AO-Echo 26 Oct 02:53:27 02:58:48 79° 103° (ESE) 03:04:06 ?
Oscar 16 26 Oct 03:08:28 03:13:18 43° 291° (WNW) 03:18:06 437.025 USB, Beacon 2401.1428
Sapphire 26 Oct 03:13:46 03:18:41 37° 111° (ESE) 03:23:38 437.095 MHz 1200 baud AX-25 AFSK
Uribyol 2 26 Oct 03:30:03 03:35:13 63° 288° (WNW) 03:40:20 436.500 FM
PCSat 26 Oct 03:35:39 03:40:58 61° 116° (ESE) 03:46:20 145.825 MHz
ITAMSAT 1 26 Oct 03:36:26 03:41:35 59° 289° (WNW) 03:46:41 435.822 SSB
RS-15 26 Oct 03:49:14 03:58:08 27° 14° (NNE) 04:07:13 29.354 - 29.394 USB, Beacon 29.352 USB
OPAL 26 Oct 03:54:58 03:59:03 25° 61° (ENE) 04:03:07 ?
JAS-1B 26 Oct 04:01:31 04:07:12 32° 296° (WNW) 04:13:45 435.800 - 435.900 CW/SSB
Oscar 19 26 Oct 04:03:03 04:06:05 16° 301° (WNW) 04:09:08 437.125 CW, 437.150 USB
Gurwin Techsat 1B 26 Oct 04:03:35 04:08:50 62° 288° (WNW) 04:14:04 435.225 FM
TMSAT-1 26 Oct 04:13:58 04:19:14 67° 287° (WNW) 04:24:29 436.925 FM
AO-7 26 Oct 04:17:40 04:25:07 35° 97° (E) 04:32:31 29.400 - 29.500 MHz
JAS-2 26 Oct 04:18:57 04:20:09 10° 81° (E) 04:21:21 435.800 - 435.900 CW/SSB, 435.910 FM
AO-27 26 Oct 04:23:09 04:27:18 24° 297° (WNW) 04:31:25 436.795 MHz FM
AO-Echo 26 Oct 04:33:43 04:36:54 16° 301° (WNW) 04:40:04 ?
Uosat F 26 Oct 04:39:50 04:44:25 33° 97° (E) 04:48:57 435.120 FM
Sapphire 26 Oct 04:57:07 05:02:06 37° 310° (NW) 05:07:07 437.095 MHz 1200 baud AX-25 AFSK
PCSat 26 Oct 05:20:22 05:24:48 25° 316° (NW) 05:29:15 145.825 MHz
OPAL 26 Oct 05:32:43 05:37:40 46° 258° (WSW) 05:42:34 ?
STRAND 1 26 Oct 05:41:20 05:45:31 26° 64° (ENE) 05:49:43 ?
TMSAT-1 26 Oct 05:57:32 05:58:09 10° 306° (NW) 05:58:46 436.925 FM
JAS-2 26 Oct 05:58:57 06:06:39 58° 99° (E) 06:14:17 435.800 - 435.900 CW/SSB, 435.910 FM
RS-15 26 Oct 06:02:43 06:13:38 56° 45° (NE) 06:24:56 29.354 - 29.394 USB, Beacon 29.352 USB
AO-7 26 Oct 06:10:09 06:18:13 57° 296° (WNW) 06:26:17 29.400 - 29.500 MHz
Uosat F 26 Oct 06:18:42 06:23:08 32° 294° (WNW) 06:27:33 435.120 FM
Hamsat 26 Oct 06:35:22 06:39:35 75° 102° (ESE) 06:43:48 145.90 MHz
SO-67 26 Oct 06:53:18 06:54:58 13° 91° (E) 06:56:37 435.3500 MHz FM
STRAND 1 26 Oct 07:19:36 07:24:28 43° 261° (W) 07:29:23 ?
Saudisat 1A 26 Oct 07:25:39 07:30:00 72° 122° (ESE) 07:34:25 436.775 MHz
JAS-2 26 Oct 07:44:27 07:51:16 35° 298° (WNW) 07:58:07 435.800 - 435.900 CW/SSB, 435.910 FM
AO-7 26 Oct 08:05:09 08:09:15 15° 318° (NW) 08:13:22 29.400 - 29.500 MHz
Hamsat 26 Oct 08:13:35 08:14:57 11° 299° (WNW) 08:16:18 145.90 MHz
RS-15 26 Oct 08:15:24 08:25:55 50° 248° (WSW) 08:36:54 29.354 - 29.394 USB, Beacon 29.352 USB
MaSat-1 26 Oct 08:24:16 08:26:38 28° 57° (ENE) 08:28:50 437.345 MHz
SO-67 26 Oct 08:24:53 08:28:07 37° 287° (WNW) 08:31:19 435.3500 MHz FM
Saudisat 1A 26 Oct 09:06:56 09:10:03 19° 322° (NW) 09:13:11 436.775 MHz
HO-68 26 Oct 09:11:07 09:17:48 39° 98° (E) 09:24:24 435.675 MHz FM
ZACube-1 26 Oct 09:51:37 09:52:44 11° 88° (E) 09:53:50 437.345 MHz
UKube-1 26 Oct 09:51:44 09:55:31 28° 96° (E) 09:59:17 145.840 MHz, 145.915 MHz
Sapphire 26 Oct 10:18:59 10:20:11 11° 28° (NNE) 10:21:22 437.095 MHz 1200 baud AX-25 AFSK
Oscar 11 26 Oct 10:31:30 10:35:49 74° 102° (ESE) 10:40:07 145.825 FM, Beacon 2401.500 USB
FUNcube-1 26 Oct 10:33:45 10:37:34 32° 96° (E) 10:41:18 145.950 - 145.970 MHz USB
PCSat 26 Oct 10:40:09 10:43:09 15° 35° (NE) 10:46:08 145.825 MHz
HO-68 26 Oct 10:58:48 11:05:32 45° 296° (WNW) 11:12:14 435.675 MHz FM
KITSAT 1 26 Oct 11:19:19 11:26:39 40° 110° (ESE) 11:33:59 435.175 FM
ZACube-1 26 Oct 11:25:24 11:29:38 68° 286° (WNW) 11:33:47 437.345 MHz
UKube-1 26 Oct 11:27:54 11:31:39 29° 293° (WNW) 11:35:24 145.840 MHz, 145.915 MHz
ISS 26 Oct 11:34:54 11:37:21 19° 135° (SE) 11:39:50 145.800 FM
SO-50 26 Oct 11:43:19 11:46:33 20° 111° (ESE) 11:49:52 436.795 FM
Sapphire 26 Oct 11:59:59 12:05:09 42° 51° (NE) 12:10:16 437.095 MHz 1200 baud AX-25 AFSK
Oscar 19 26 Oct 12:03:34 12:06:50 17° 60° (ENE) 12:10:06 437.125 CW, 437.150 USB
Oscar 10/S400 26 Oct 12:04:19 12:20:20 23° 150° (SSE) 12:34:30 145.825 - 145.975 CW/USB, Beacon 145.810 USB
Oscar 11 26 Oct 12:09:42 12:11:24 12° 299° (WNW) 12:13:06 145.825 FM, Beacon 2401.500 USB
FUNcube-1 26 Oct 12:10:25 12:13:48 24° 294° (WNW) 12:17:08 145.950 - 145.970 MHz USB
PCSat 26 Oct 12:22:14 12:27:40 65° 56° (ENE) 12:33:02 145.825 MHz
AO-27 26 Oct 12:26:50 12:28:58 13° 56° (NE) 12:31:07 436.795 MHz FM
AO-Echo 26 Oct 12:31:36 12:34:32 16° 59° (ENE) 12:37:31 ?
Oscar 16 26 Oct 12:47:42 12:52:31 42° 69° (ENE) 12:57:20 437.025 USB, Beacon 2401.1428
JAS-1B 26 Oct 12:58:44 13:04:16 46° 68° (ENE) 13:09:39 435.800 - 435.900 CW/SSB
UOSAT-12 26 Oct 13:00:12 13:01:28 11° 107° (ESE) 13:02:44 437.025 FM, 437.400 FM
ISS 26 Oct 13:10:28 13:13:46 61° 332° (NNW) 13:17:05 145.800 FM
Uribyol 2 26 Oct 13:10:43 13:15:14 31° 65° (ENE) 13:19:47 436.500 FM
KITSAT 1 26 Oct 13:13:59 13:21:50 54° 311° (NW) 13:29:45 435.175 FM
ITAMSAT 1 26 Oct 13:17:05 13:21:41 33° 66° (ENE) 13:26:19 435.822 SSB
SO-50 26 Oct 13:22:18 13:26:42 52° 310° (NW) 13:31:16 436.795 FM
AO-7 26 Oct 13:31:12 13:34:55 14° 41° (NE) 13:38:38 29.400 - 29.500 MHz
Oscar 19 26 Oct 13:40:30 13:45:38 69° 258° (WSW) 13:50:46 437.125 CW, 437.150 USB
Sapphire 26 Oct 13:43:40 13:48:26 32° 250° (WSW) 13:53:10 437.095 MHz 1200 baud AX-25 AFSK
Gurwin Techsat 1B 26 Oct 13:46:57 13:51:38 33° 66° (ENE) 13:56:20 435.225 FM
TMSAT-1 26 Oct 13:57:11 14:01:45 30° 65° (ENE) 14:06:20 436.925 FM
AO-27 26 Oct 14:02:26 14:07:39 82° 74° (ENE) 14:12:55 436.795 MHz FM
PCSat 26 Oct 14:06:47 14:10:32 19° 254° (WSW) 14:14:16 145.825 MHz
AO-Echo 26 Oct 14:07:45 14:12:39 73° 258° (WSW) 14:17:46 ?
Saudisat 1A 26 Oct 14:12:39 14:15:16 15° 35° (NE) 14:17:53 436.775 MHz
